contact:dominique.lefevre@mio.osupytheas.fr, maurice.libes@osupytheas.fr
Project:EMSO Ligure-ouest http://www.emso-fr.org/EMSO-France
Sensor Aquadopp, line 04 Serial AQD8517 
DOI : "https://doi.org/10.17882/74513; https://doi.org/10.17882/83244" 
Title:EMSO Ligure Ouest : Data ligne ALBATROSS capteur AQUADOPP - deploiement 2021
Id,Date,Profondeur,Latitude,Longitude,X_East,Y_North,Z_Up,Amplitude_X,Amplitude_Y,Amplitude_Z,Batterie,SoundSpeed,Heading,Pitch,Roll,Pressure,Temperature,Speed,Direction
, , m, degrees North, degrees East, m.s-1, m.s-1,m.s-1, 1, 1, 1, Volt, m.s-1, degree, degree, degree, dbar, degree_C, m.s-1, degree
04,2021-12-07T21:30:00,1000.0,42.79,6.0312,-0.064,-0.008,0.019,52.0,53.0,51.0,12.6,1504.7,316.8,-1.2,-0.6,967.756,13.28,0.064,262.9
04,2021-12-07T22:00:00,1000.0,42.79,6.0312,-0.062,-0.013,0.005,51.0,54.0,50.0,12.6,1504.6,320.6,-0.7,-0.6,967.686,13.26,0.063,258.2
04,2021-12-07T22:30:00,1000.0,42.79,6.0312,-0.059,-0.002,0.007,48.0,50.0,48.0,12.6,1504.6,325.9,-1.0,-0.6,967.704,13.26,0.059,268.1
04,2021-12-07T23:00:00,1000.0,42.79,6.0312,-0.06,0.001,0.02,45.0,48.0,45.0,12.6,1504.6,323.6,-1.1,-0.6,967.723,13.26,0.06,271.0
04,2021-12-07T23:30:00,1000.0,42.79,6.0312,-0.071,0.006,0.014,45.0,45.0,45.0,12.6,1504.6,320.5,-1.0,-0.7,967.725,13.25,0.071,274.8
04,2021-12-08T00:00:00,1000.0,42.79,6.0312,-0.062,-0.005,0.002,44.0,46.0,45.0,12.6,1504.6,319.1,-1.0,-0.6,967.734,13.25,0.062,265.4
04,2021-12-08T00:30:00,1000.0,42.79,6.0312,-0.057,0.0,0.003,45.0,46.0,41.0,12.7,1504.6,322.0,-1.0,-0.6,967.69,13.25,0.057,270.0
04,2021-12-08T01:00:00,1000.0,42.79,6.0312,-0.054,0.005,-0.01,44.0,44.0,43.0,12.6,1504.6,324.7,-0.8,-0.6,967.664,13.25,0.054,275.3
04,2021-12-08T01:30:00,1000.0,42.79,6.0312,-0.054,0.003,-0.001,44.0,45.0,45.0,12.6,1504.6,321.6,-1.0,-0.6,967.658,13.25,0.054,273.2
04,2021-12-08T02:00:00,1000.0,42.79,6.0312,-0.053,0.019,0.0,43.0,45.0,42.0,12.6,1504.6,326.9,-0.6,-0.7,967.64,13.25,0.056,289.7
04,2021-12-08T02:30:00,1000.0,42.79,6.0312,-0.044,0.002,0.0,44.0,46.0,44.0,12.6,1504.6,325.6,-0.8,-0.6,967.617,13.25,0.044,272.6
04,2021-12-08T03:00:00,1000.0,42.79,6.0312,-0.044,0.0,0.01,48.0,46.0,44.0,12.6,1504.6,324.4,-0.6,-0.6,967.597,13.26,0.044,270.0
04,2021-12-08T03:30:00,1000.0,42.79,6.0312,-0.04,0.006,0.001,48.0,50.0,48.0,12.6,1504.6,326.1,-0.6,-0.6,967.601,13.27,0.04,278.5
04,2021-12-08T04:00:00,1000.0,42.79,6.0312,-0.049,0.015,0.009,47.0,49.0,46.0,12.6,1504.7,325.7,-0.5,-0.6,967.619,13.28,0.051,287.0
04,2021-12-08T04:30:00,1000.0,42.79,6.0312,-0.062,0.008,0.005,45.0,48.0,45.0,12.6,1504.7,322.5,-0.6,-0.6,967.633,13.28,0.062,277.3
04,2021-12-08T05:00:00,1000.0,42.79,6.0312,-0.047,0.008,0.0,47.0,51.0,47.0,12.6,1504.6,325.4,-0.8,-0.7,967.638,13.27,0.047,279.7
04,2021-12-08T05:30:00,1000.0,42.79,6.0312,-0.056,0.007,0.013,46.0,49.0,44.0,12.6,1504.6,322.9,-0.6,-0.7,967.636,13.27,0.056,277.1
04,2021-12-08T06:00:00,1000.0,42.79,6.0312,-0.058,0.009,0.016,46.0,48.0,46.0,12.6,1504.6,322.2,-0.8,-0.6,967.636,13.26,0.058,278.8
04,2021-12-08T06:30:00,1000.0,42.79,6.0312,-0.062,-0.004,-0.008,44.0,49.0,46.0,12.6,1504.6,321.2,-0.7,-0.6,967.69,13.26,0.062,266.3
04,2021-12-08T07:00:00,1000.0,42.79,6.0312,-0.066,-0.002,-0.004,43.0,46.0,44.0,12.6,1504.6,323.5,-0.8,-0.7,967.756,13.25,0.066,268.3
04,2021-12-08T07:30:00,1000.0,42.79,6.0312,-0.052,-0.003,0.007,44.0,45.0,42.0,12.6,1504.6,322.3,-0.7,-0.7,967.793,13.25,0.052,266.7
04,2021-12-08T08:00:00,1000.0,42.79,6.0312,-0.06,0.0,-0.009,44.0,47.0,44.0,12.6,1504.6,322.4,-0.7,-0.7,967.803,13.26,0.06,270.0
04,2021-12-08T08:30:00,1000.0,42.79,6.0312,-0.056,-0.01,-0.014,47.0,48.0,43.0,12.6,1504.6,315.4,-0.7,-0.8,967.891,13.27,0.056,259.9
04,2021-12-08T09:00:00,1000.0,42.79,6.0312,-0.066,0.006,-0.001,49.0,50.0,46.0,12.6,1504.6,318.8,-1.2,-0.8,967.987,13.27,0.066,275.2
04,2021-12-08T09:30:00,1000.0,42.79,6.0312,-0.047,0.007,0.006,48.0,50.0,48.0,12.6,1504.6,327.9,-0.7,-0.7,967.884,13.26,0.047,278.5
04,2021-12-08T10:30:00,1000.0,42.79,6.0312,-0.042,0.0,0.0,48.0,48.0,45.0,12.6,1504.6,327.0,-0.6,-0.6,967.885,13.25,0.042,270.0
04,2021-12-08T11:00:00,1000.0,42.79,6.0312,-0.033,0.003,0.019,46.0,47.0,44.0,12.6,1504.6,326.5,-0.7,-0.6,967.881,13.25,0.033,275.2
04,2021-12-08T11:30:00,1000.0,42.79,6.0312,-0.039,0.003,0.014,45.0,50.0,43.0,12.6,1504.6,329.8,-0.7,-0.6,967.878,13.25,0.039,274.4
04,2021-12-08T12:00:00,1000.0,42.79,6.0312,-0.031,0.005,-0.002,42.0,46.0,44.0,12.6,1504.5,332.0,-0.6,-0.6,967.855,13.24,0.031,279.2
04,2021-12-08T12:30:00,1000.0,42.79,6.0312,-0.026,0.007,0.002,46.0,50.0,47.0,12.6,1504.5,332.4,-0.7,-0.6,967.84,13.24,0.026,285.1
04,2021-12-08T13:00:00,1000.0,42.79,6.0312,-0.03,-0.002,-0.002,46.0,45.0,48.0,12.6,1504.6,331.4,-0.6,-0.6,967.828,13.25,0.03,266.2
04,2021-12-08T13:30:00,1000.0,42.79,6.0312,-0.034,-0.009,0.011,48.0,50.0,49.0,12.7,1504.6,331.3,-0.7,-0.5,967.801,13.25,0.035,255.2
04,2021-12-08T14:00:00,1000.0,42.79,6.0312,-0.035,0.006,0.0,47.0,50.0,48.0,12.6,1504.6,332.8,-0.7,-0.6,967.756,13.25,0.035,279.7
04,2021-12-08T14:30:00,1000.0,42.79,6.0312,-0.04,-0.011,0.021,48.0,50.0,46.0,12.6,1504.6,328.8,-0.7,-0.5,967.748,13.25,0.041,254.6
04,2021-12-08T15:00:00,1000.0,42.79,6.0312,-0.043,0.008,-0.002,48.0,52.0,48.0,12.6,1504.5,326.8,-0.6,-0.6,967.748,13.24,0.043,280.5
04,2021-12-08T15:30:00,1000.0,42.79,6.0312,-0.049,-0.005,0.0,49.0,52.0,48.0,12.6,1504.5,328.5,-0.6,-0.6,967.763,13.24,0.049,264.2
04,2021-12-08T16:00:00,1000.0,42.79,6.0312,-0.04,0.006,-0.012,51.0,52.0,49.0,12.6,1504.6,326.0,-0.8,-0.6,967.743,13.25,0.04,278.5
04,2021-12-08T16:30:00,1000.0,42.79,6.0312,-0.068,0.0,-0.004,48.0,49.0,47.0,12.6,1504.6,324.9,-0.7,-0.5,967.687,13.26,0.067,270.0
04,2021-12-08T17:00:00,1000.0,42.79,6.0312,-0.052,0.002,0.0,47.0,49.0,45.0,12.6,1504.6,323.6,-0.5,-0.6,967.672,13.27,0.052,272.2
04,2021-12-08T17:30:00,1000.0,42.79,6.0312,-0.049,0.01,0.0,45.0,49.0,49.0,12.6,1504.7,325.5,-0.5,-0.6,967.661,13.29,0.05,281.5
04,2021-12-08T18:00:00,1000.0,42.79,6.0312,-0.06,0.012,0.003,45.0,47.0,47.0,12.6,1504.7,327.5,-0.6,-0.6,967.691,13.28,0.061,281.3
04,2021-12-08T18:30:00,1000.0,42.79,6.0312,-0.05,0.006,0.01,47.0,49.0,45.0,12.6,1504.7,326.0,-0.4,-0.5,967.719,13.28,0.05,276.8
04,2021-12-08T19:00:00,1000.0,42.79,6.0312,-0.058,0.014,-0.014,45.0,46.0,45.0,12.6,1504.7,327.5,-0.4,-0.6,967.738,13.28,0.059,283.6
04,2021-12-08T19:30:00,1000.0,42.79,6.0312,-0.052,0.015,0.013,47.0,48.0,44.0,12.6,1504.7,327.7,-0.4,-0.5,967.69,13.28,0.054,286.1
04,2021-12-08T20:00:00,1000.0,42.79,6.0312,-0.051,0.006,-0.003,46.0,47.0,43.0,12.6,1504.7,330.1,-0.4,-0.6,967.694,13.28,0.051,276.7
04,2021-12-08T20:30:00,1000.0,42.79,6.0312,-0.05,0.017,0.014,45.0,47.0,45.0,12.6,1504.7,333.5,-0.4,-0.6,967.752,13.28,0.052,288.8
04,2021-12-08T21:00:00,1000.0,42.79,6.0312,-0.05,0.014,0.005,44.0,45.0,44.0,12.6,1504.6,325.2,-0.6,-0.7,967.754,13.27,0.051,285.6
